GW7202 Weather Reports


time (UTC)temp
C
wind
direction
speed
KPH
gust
KPH
rain 1hr
cm
rain 24hr
cm
rain mn
cm
humidity
%
barometer
mb
20260504081524 16 214 4.8 9.7 0.00 0.00 0.00 64 1008.3
20260504050012 17 201 6.4 12.9 0.00 0.00 0.00 59 1009.8
20260504044514 17 174 6.4 16.1 0.00 0.00 0.00 57 1010.0
20260504043007 17 174 8.0 16.1 0.00 0.00 0.00 56 1010.1
20260504041524 18 133 8.0 16.1 0.00 0.00 0.00 55 1010.2
20260504040024 18 217 6.4 14.5 0.00 0.00 0.00 56 1010.3
20260504034521 18 191 8.0 16.1 0.00 0.00 0.00 55 1010.3
20260504033016 18 178 6.4 16.1 0.00 0.00 0.00 55 1010.4
20260504031529 18 189 6.4 16.1 0.00 0.00 0.00 55 1010.6
20260504030011 18 169 8.0 14.5 0.00 0.00 0.00 55 1010.6
20260504024507 18 194 8.0 14.5 0.00 0.00 0.00 55 1010.5
20260504023028 18 184 4.8 11.3 0.00 0.00 0.00 57 1010.4
20260504021522 18 203 3.2 4.8 0.00 0.00 0.00 57 1010.4
20260504020020 18 205 3.2 8.0 0.00 0.00 0.00 56 1010.4
20260504014537 18 153 1.6 3.2 0.00 0.00 0.00 57 1010.3
20260504013018 18 202 1.6 3.2 0.00 0.00 0.00 58 1010.1
20260504011514 18 157 0.0 1.6 0.00 0.00 0.00 57 1010.1
20260504010012 20 195 0.0 4.8 0.00 0.00 0.00 51 1010.0
20260504004526 21 155 1.6 6.4 0.00 0.00 0.00 48 1010.0
20260504003026 22 178 4.8 6.4 0.00 0.00 0.00 46 1009.9
20260504001526 23 175 4.8 14.5 0.00 0.00 0.00 38 1009.9
20260504000037 24 190 4.8 11.3 0.00 0.00 0.00 37 1009.8
20260503234519 25 184 6.4 16.1 0.00 0.00 0.00 38 1009.9
20260503233021 25 128 6.4 19.3 0.00 0.00 0.00 33 1010.0
20260503231517 25 246 9.7 19.3 0.00 0.00 0.00 37 1010.1
20260503230025 25 164 12.9 24.1 0.00 0.00 0.00 38 1010.1
20260503224533 25 170 11.3 25.7 0.00 0.00 0.00 36 1010.1
20260503223028 25 184 12.9 27.4 0.00 0.00 0.00 37 1010.1
20260503221526 25 228 12.9 27.4 0.00 0.00 0.00 36 1010.1
20260503220028 25 176 16.1 29.0 0.00 0.00 0.00 36 1010.4
20260503214518 25 181 12.9 29.0 0.00 0.00 0.00 37 1010.5
20260503213021 25 201 9.7 25.7 0.00 0.00 0.00 36 1010.7
20260503211515 24 184 17.7 27.4 0.00 0.00 0.00 34 1010.9
20260503210036 25 124 9.7 25.7 0.00 0.00 0.00 35 1011.2
20260503204513 24 137 9.7 38.6 0.00 0.00 0.00 36 1011.5
20260503203014 23 212 14.5 27.4 0.00 0.00 0.00 35 1011.9
20260503201505 23 183 16.1 32.2 0.00 0.00 0.00 34 1012.2
20260503200006 23 181 12.9 25.7 0.00 0.00 0.00 35 1012.6
20260503194521 23 201 14.5 30.6 0.00 0.00 0.00 37 1012.9
20260503193017 23 181 16.1 25.7 0.00 0.00 0.00 37 1013.4
20260503191517 23 198 9.7 20.9 0.00 0.00 0.00 39 1013.6
20260503190016 22 159 12.9 32.2 0.00 0.00 0.00 35 1013.9
20260503184510 22 244 9.7 32.2 0.00 0.00 0.00 34 1014.2
20260503183010 22 174 9.7 20.9 0.00 0.00 0.00 34 1014.4
20260503181507 21 158 14.5 32.2 0.00 0.00 0.00 36 1014.6
20260503180024 21 205 12.9 25.7 0.00 0.00 0.00 40 1015.1
20260503174523 20 173 12.9 24.1 0.00 0.00 0.00 37 1015.5
20260503173020 20 176 12.9 25.7 0.00 0.00 0.00 39 1015.7
20260503171518 20 134 8.0 22.5 0.00 0.00 0.00 37 1015.9